Terminal Aerodrome Forecast
Issued by NWS Boston, MA

Home | Current Version | Previous Version | Text Only | Print | Product List | Glossary On
Versions: 1 2 3 4 5 6 7 8 9 10 11 12 13 14 15 16 17 18 19 20 21 22 23 24
000
FTUS41 KBOX 251744
TAFBDL
TAF
KBDL 251744Z 2518/2624 19012KT P6SM SCT050 BKN200
     FM251930 20015G28KT 3SM TSRA OVC050CB
     FM252100 23005KT P6SM VCSH BKN050
     FM260000 23007KT 4SM TSRA OVC045CB
     FM260200 25004KT P6SM BKN250
     FM260500 VRB03KT 5SM BR FEW250
     FM261000 26004KT 4SM BR SKC
     FM261100 27004KT P6SM SKC
     FM261600 29008KT P6SM SKC=

USA.gov is the U.S. government's official web portal to all federal, state and local government web resources and services.